Weather History for KITH - December, 2014

Change the Weather History Date:

Tuesday, December 9, 2014

  Actual Average Record
Temperature  
Mean Temperature 33 °F -  
Max Temperature 36 °F 38 °F 64 °F (1966)
Min Temperature 30 °F 23 °F -1 °F (1989)
Degree Days  
Heating Degree Days 32    
Moisture  
Dew Point 31 °F    
Average Humidity 91    
Maximum Humidity 100    
Minimum Humidity 85    
Precipitation  
Precipitation 0.00 in - - ()
Sea Level Pressure  
Sea Level Pressure 30.09 in    
Wind  
Wind Speed 7 mph (NNW)    
Max Wind Speed 13 mph    
Max Gust Speed 21 mph    
Visibility 7 miles    
Events Rain , Snow    
Averages and records for this station are not official NWS values.
T = Trace of Precipitation, MM = Missing Value Source: NWS Daily Summary

Daily Weather History Graph

Daily Weather History Graph

Search for Another Location

Airport or City:

Trip Planner

Search our weather history database for the weather conditions in past years. The results will help you decide how hot, cold, wet, or windy it might be!

Date:

Astronomy

Dec. 09, 2014 Rise Set
Actual Time 7:23 AM EST 4:32 PM EST
Civil Twilight 6:51 AM EST 5:04 PM EST
Nautical Twilight 6:16 AM EST 5:39 PM EST
Astronomical Twilight 5:42 AM EST 6:14 PM EST
Moon 7:52 PM EST (12/9) 9:33 AM EST (12/9)
Length of Visible Light 10h 12m
Length of Day
9h 09m
Waning Gibbous, 90% of the Moon is Illuminated
Dec 9
Waning Gibbous
Dec 14
Last Quarter
Dec 21
New
Dec 28
First Quarter
Jan 4
Full

Hourly Weather History & Observations

Time (EST) Temp. Windchill Dew Point Humidity Pressure Visibility Wind Dir Wind Speed Gust Speed Precip Events Conditions
12:56 AM 30.0 °F 21.1 °F 26.1 °F 85% 30.30 in 10.0 mi South 10.4 mph 18.4 mph N/A   Mostly Cloudy
1:56 AM 30.0 °F 21.7 °F 27.1 °F 89% 30.29 in 10.0 mi SSE 9.2 mph - N/A   Mostly Cloudy
2:56 AM 31.1 °F 26.4 °F 27.1 °F 85% 30.29 in 10.0 mi SE 4.6 mph - N/A   Overcast
3:56 AM 31.1 °F 24.5 °F 28.0 °F 88% 30.27 in 10.0 mi SSE 6.9 mph - N/A   Overcast
4:56 AM 32.0 °F 28.7 °F 28.0 °F 85% 30.26 in 10.0 mi South 3.5 mph - N/A   Overcast
5:56 AM 32.0 °F 28.7 °F 28.0 °F 85% 30.24 in 10.0 mi SW 3.5 mph - N/A   Overcast
6:27 AM 32.0 °F - 28.4 °F 87% 30.19 in 10.0 mi Calm Calm - N/A   Overcast
6:56 AM 31.1 °F - 28.0 °F 88% 30.22 in 10.0 mi Calm Calm - N/A   Overcast
7:56 AM 30.0 °F - 28.0 °F 92% 30.20 in 10.0 mi Calm Calm - N/A   Mostly Cloudy
8:56 AM 32.0 °F - 30.0 °F 92% 30.19 in 10.0 mi Calm Calm - N/A   Mostly Cloudy
9:56 AM 32.9 °F 28.5 °F 30.0 °F 89% 30.17 in 10.0 mi East 4.6 mph - N/A   Mostly Cloudy
10:56 AM 34.0 °F - 30.0 °F 85% 30.15 in 10.0 mi Calm Calm - N/A   Mostly Cloudy
11:56 AM 34.9 °F 32.0 °F 31.1 °F 86% 30.11 in 10.0 mi NNE 3.5 mph - N/A   Overcast
12:56 PM 34.9 °F 29.9 °F 32.9 °F 92% 30.07 in 7.0 mi NNW 5.8 mph - 0.00 in Rain Light Rain Showers
1:56 PM 36.0 °F 30.3 °F 32.9 °F 89% 30.05 in 10.0 mi NNW 6.9 mph - 0.00 in   Overcast
2:56 PM 36.0 °F 30.3 °F 34.0 °F 93% 30.03 in 4.0 mi NW 6.9 mph - N/A   Overcast
3:56 PM 36.0 °F 30.3 °F 32.0 °F 86% 30.03 in 6.0 mi NNW 6.9 mph - 0.00 in Rain Light Rain
4:22 PM 35.6 °F 27.5 °F 32.0 °F 87% 29.99 in 7.0 mi NNW 11.5 mph - 0.00 in   Overcast
4:43 PM 35.6 °F 27.1 °F 32.0 °F 87% 29.99 in 7.0 mi NNW 12.7 mph - 0.00 in Rain Light Rain Showers
4:56 PM 34.0 °F 27.2 °F 32.0 °F 92% 30.03 in 7.0 mi North 8.1 mph - 0.00 in Rain Light Rain
5:56 PM 34.0 °F 28.0 °F 32.0 °F 92% 30.02 in 7.0 mi NNW 6.9 mph - 0.00 in   Overcast
6:56 PM 34.0 °F 26.6 °F 32.0 °F 92% 30.00 in 7.0 mi NNW 9.2 mph - N/A   Overcast
7:56 PM 34.0 °F 25.5 °F 32.9 °F 96% 29.99 in 2.0 mi NNW 11.5 mph - 0.00 in   Overcast
8:56 PM 34.9 °F 27.7 °F 34.0 °F 97% 29.99 in 1.0 mi NNW 9.2 mph - 0.00 in Rain Light Rain
9:56 PM 34.0 °F 26.6 °F 32.9 °F 96% 29.98 in 2.0 mi NNW 9.2 mph - 0.00 in Rain Light Rain
10:03 PM 33.8 °F 25.8 °F 33.8 °F 100% 29.95 in 4.0 mi NNW 10.4 mph - 0.00 in Rain Light Rain
10:25 PM 33.8 °F 25.3 °F 33.8 °F 100% 29.94 in 4.0 mi NNW 11.5 mph - 0.00 in Snow Light Snow
10:56 PM 32.9 °F 24.7 °F 32.9 °F 100% 29.98 in 4.0 mi NNW 10.4 mph - 0.00 in Snow Light Snow
11:21 PM 33.8 °F 24.8 °F 32.0 °F 93% 29.93 in 2.5 mi NNW 12.7 mph - 0.00 in Snow Light Snow
11:56 PM 32.9 °F 23.7 °F 32.0 °F 96% 29.96 in 2.5 mi NNW 12.7 mph 20.7 mph 0.00 in Snow Light Snow